Location: Unspecified
(0.0000°N, 0.0000°E)
Time: 09:11:23
(UTC+00:00)

BlueWalker 3 - Visible Passes

Search period start: 13 January 2026 00:00
Search period end: 23 January 2026 00:00
Orbit: 452 x 463 km, 53.2° (Epoch: 12 January)

Date Brightness Start Highest point End Pass type
(mag) Time Alt. Az. Time Alt. Az. Time Alt. Az.
13 Jan 2.1 18:38:08 10° SSW 18:41:37 48° ESE 18:45:03 10° NE visible
15 Jan 4.5 19:06:23 10° W 19:08:19 14° NW 19:10:14 10° NNW visible
16 Jan 4.4 05:10:55 10° NNE 05:13:18 17° NE 05:15:41 10° E visible
17 Jan 4.6 04:36:51 10° NE 04:37:59 11° NE 04:39:07 10° ENE visible
18 Jan 2.4 05:36:35 10° NW 05:39:58 39° SW 05:43:21 10° SSE visible
19 Jan 1.7 05:03:14 33° NW 05:04:38 64° WSW 05:08:13 10° SSE visible
20 Jan 2.3 04:30:00 56° SE 04:30:00 56° SE 04:32:55 10° SE visible
21 Jan 4.7 03:56:42 15° SE 03:56:42 15° SE 03:57:28 10° SE visible
